T7ZEM EFSI-EVRA

Flight info

Callsign T7ZEM
Flight time 1h 24m
Altitude 29000
Route SAFEK DCT EVLIT DCT PETOT DCT LUTAL
Aircraft TBM8/L-SDFGRWY/S

Departure

Time 2026-05-07 18:52
Airport Seinäjoki Airport (EFSI)

Arrival

Time 2026-05-07 20:16
Airport Riga International Airport (EVRA)
Time Latitude Longitude Altitude Speed Heading
2026-05-07 18:37 62.69099 22.82860 306 ft 0 kts 222°
2026-05-07 18:46 62.69099 22.82859 306 ft 0 kts 222°
2026-05-07 18:47 62.69088 22.82904 305 ft 9 kts 91°
2026-05-07 18:47 62.69139 22.82911 306 ft 13 kts 318°
2026-05-07 18:47 62.69210 22.82758 306 ft 16 kts 317°
2026-05-07 18:47 62.69307 22.82765 307 ft 11 kts 37°
2026-05-07 18:48 62.69344 22.82927 308 ft 16 kts 117°
2026-05-07 18:48 62.69258 22.83145 307 ft 22 kts 135°
2026-05-07 18:48 62.69130 22.83408 304 ft 28 kts 135°
2026-05-07 18:48 62.68983 22.83720 305 ft 31 kts 136°
2026-05-07 18:49 62.68817 22.84072 304 ft 36 kts 135°
2026-05-07 18:49 62.68665 22.84383 302 ft 14 kts 134°
2026-05-07 18:49 62.68616 22.84484 302 ft 12 kts 135°
2026-05-07 18:49 62.68547 22.84632 302 ft 17 kts 134°
2026-05-07 18:50 62.68478 22.84840 302 ft 12 kts 180°
2026-05-07 18:50 62.68490 22.84747 303 ft 10 kts 315°
2026-05-07 18:50 62.68554 22.84613 303 ft 20 kts 317°
2026-05-07 18:50 62.68783 22.84136 302 ft 72 kts 316°
2026-05-07 18:51 62.69242 22.83176 353 ft 106 kts 315°
2026-05-07 18:51 62.69851 22.81932 463 ft 132 kts 316°
2026-05-07 18:51 62.70575 22.80469 639 ft 151 kts 316°
2026-05-07 18:51 62.71375 22.78848 838 ft 162 kts 316°
2026-05-07 18:52 62.72201 22.77155 1196 ft 163 kts 315°
2026-05-07 18:52 62.73028 22.75483 1610 ft 161 kts 316°
2026-05-07 18:52 62.73839 22.73847 2025 ft 161 kts 315°
2026-05-07 18:52 62.74661 22.72190 2420 ft 161 kts 316°
2026-05-07 18:53 62.75480 22.70520 2812 ft 161 kts 315°
2026-05-07 18:53 62.76300 22.68843 3192 ft 162 kts 316°
2026-05-07 18:53 62.77123 22.67158 3568 ft 163 kts 316°
2026-05-07 18:53 62.77820 22.65246 3951 ft 164 kts 289°
2026-05-07 18:54 62.77666 22.62791 4305 ft 173 kts 247°
2026-05-07 18:54 62.76830 22.60858 4678 ft 184 kts 212°
2026-05-07 18:54 62.75550 22.60417 5085 ft 193 kts 176°
2026-05-07 18:54 62.74210 22.60846 5473 ft 195 kts 175°
2026-05-07 18:55 62.72856 22.61135 5892 ft 196 kts 179°
2026-05-07 18:55 62.71513 22.61371 6296 ft 197 kts 179°
2026-05-07 18:55 62.70143 22.61617 6697 ft 198 kts 179°
2026-05-07 18:55 62.68765 22.61871 7078 ft 199 kts 179°
2026-05-07 18:56 62.67381 22.62122 7466 ft 200 kts 179°
2026-05-07 18:56 62.65995 22.62376 7854 ft 201 kts 179°
2026-05-07 18:56 62.64597 22.62629 8242 ft 202 kts 179°
2026-05-07 18:56 62.63199 22.62884 8631 ft 202 kts 179°
2026-05-07 18:57 62.61793 22.63138 9012 ft 203 kts 179°
2026-05-07 18:57 62.60381 22.63395 9407 ft 204 kts 179°
2026-05-07 18:57 62.58963 22.63651 9797 ft 205 kts 179°
2026-05-07 18:57 62.57556 22.63907 10178 ft 206 kts 179°
2026-05-07 18:58 62.56123 22.64164 10545 ft 207 kts 179°
2026-05-07 18:58 62.54684 22.64425 10898 ft 208 kts 179°
2026-05-07 18:58 62.53236 22.64678 11247 ft 209 kts 179°
2026-05-07 18:58 62.51780 22.64943 11579 ft 211 kts 178°
2026-05-07 18:59 62.50317 22.65220 11932 ft 212 kts 178°
2026-05-07 18:59 62.48849 22.65482 12280 ft 213 kts 178°
2026-05-07 18:59 62.47366 22.65743 12626 ft 214 kts 178°
2026-05-07 18:59 62.45878 22.66011 12972 ft 215 kts 178°
2026-05-07 19:00 62.44890 22.66188 13200 ft 216 kts 179°
2026-05-07 19:00 62.42897 22.66544 13654 ft 218 kts 178°
2026-05-07 19:00 62.41383 22.66817 13993 ft 219 kts 178°
2026-05-07 19:00 62.39860 22.67087 14302 ft 220 kts 179°
2026-05-07 19:01 62.38332 22.67361 14609 ft 221 kts 179°
2026-05-07 19:01 62.36799 22.67634 14930 ft 221 kts 179°
2026-05-07 19:01 62.35260 22.67909 15238 ft 222 kts 179°
2026-05-07 19:01 62.33716 22.68184 15549 ft 223 kts 179°
2026-05-07 19:02 62.32692 22.68365 15752 ft 224 kts 180°
2026-05-07 19:02 62.31137 22.68643 16056 ft 225 kts 180°
2026-05-07 19:02 62.29576 22.68919 16366 ft 225 kts 180°
2026-05-07 19:02 62.28009 22.69197 16665 ft 226 kts 180°
2026-05-07 19:03 62.26436 22.69476 16968 ft 227 kts 180°
2026-05-07 19:03 62.24344 22.69846 17377 ft 228 kts 181°
2026-05-07 19:03 62.22756 22.70126 17678 ft 229 kts 181°
2026-05-07 19:03 62.21161 22.70407 17980 ft 230 kts 181°
2026-05-07 19:04 62.20100 22.70594 18181 ft 231 kts 181°
2026-05-07 19:04 62.18496 22.70878 18445 ft 232 kts 182°
2026-05-07 19:04 62.16880 22.71161 18670 ft 234 kts 184°
2026-05-07 19:04 62.15255 22.71446 18915 ft 235 kts 184°
2026-05-07 19:05 62.13619 22.71736 19161 ft 236 kts 184°
2026-05-07 19:05 62.11979 22.72023 19407 ft 237 kts 184°
2026-05-07 19:05 62.10332 22.72312 19651 ft 238 kts 184°
2026-05-07 19:05 62.08678 22.72602 19892 ft 239 kts 184°
2026-05-07 19:06 62.07053 22.72886 20128 ft 240 kts 184°
2026-05-07 19:06 62.03730 22.73467 20591 ft 242 kts 185°
2026-05-07 19:06 62.02049 22.73760 20826 ft 243 kts 185°
2026-05-07 19:07 62.00365 22.74054 21051 ft 244 kts 185°
2026-05-07 19:07 61.98666 22.74349 21280 ft 245 kts 185°
2026-05-07 19:07 61.96968 22.74644 21513 ft 246 kts 185°
2026-05-07 19:07 61.95259 22.74940 21743 ft 247 kts 185°
2026-05-07 19:08 61.93544 22.75239 21968 ft 248 kts 185°
2026-05-07 19:08 61.91821 22.75536 22192 ft 249 kts 185°
2026-05-07 19:08 61.90091 22.75836 22415 ft 250 kts 185°
2026-05-07 19:08 61.88378 22.76133 22635 ft 251 kts 186°
2026-05-07 19:09 61.86651 22.76440 22947 ft 247 kts 186°
2026-05-07 19:09 61.84934 22.76728 23104 ft 248 kts 187°
2026-05-07 19:09 61.83209 22.77023 23321 ft 249 kts 187°
2026-05-07 19:09 61.81480 22.77319 23538 ft 250 kts 187°
2026-05-07 19:10 61.79744 22.77619 23741 ft 251 kts 187°
2026-05-07 19:10 61.78006 22.77919 23909 ft 251 kts 188°
2026-05-07 19:10 61.76260 22.78217 24077 ft 252 kts 188°
2026-05-07 19:10 61.74508 22.78517 24244 ft 253 kts 188°
2026-05-07 19:11 61.72753 22.78818 24414 ft 253 kts 188°
2026-05-07 19:11 61.70993 22.79119 24582 ft 254 kts 188°
2026-05-07 19:11 61.69252 22.79417 24750 ft 255 kts 188°
2026-05-07 19:11 61.67483 22.79719 24910 ft 255 kts 188°
2026-05-07 19:12 61.65710 22.80019 25073 ft 256 kts 188°
2026-05-07 19:12 61.63931 22.80322 25226 ft 257 kts 188°
2026-05-07 19:12 61.62147 22.80626 25379 ft 257 kts 188°
2026-05-07 19:12 61.60359 22.80930 25530 ft 258 kts 188°
2026-05-07 19:13 61.58566 22.81235 25688 ft 259 kts 188°
2026-05-07 19:13 61.56769 22.81540 25844 ft 259 kts 188°
2026-05-07 19:13 61.54991 22.81839 25989 ft 260 kts 188°
2026-05-07 19:13 61.53189 22.82144 26135 ft 261 kts 188°
2026-05-07 19:14 61.51374 22.82453 26207 ft 261 kts 189°
2026-05-07 19:14 61.49568 22.82758 26356 ft 261 kts 190°
2026-05-07 19:14 61.47755 22.83059 26496 ft 262 kts 190°
2026-05-07 19:14 61.45939 22.83364 26627 ft 262 kts 190°
2026-05-07 19:15 61.44118 22.83672 26768 ft 263 kts 190°
2026-05-07 19:15 61.42292 22.83978 26897 ft 263 kts 190°
2026-05-07 19:15 61.40486 22.84281 27031 ft 264 kts 190°
2026-05-07 19:15 61.38653 22.84588 27159 ft 264 kts 190°
2026-05-07 19:16 61.36816 22.84895 27289 ft 265 kts 190°
2026-05-07 19:16 61.34975 22.85203 27411 ft 266 kts 190°
2026-05-07 19:16 61.33131 22.85510 27531 ft 266 kts 190°
2026-05-07 19:16 61.31283 22.85818 27661 ft 267 kts 190°
2026-05-07 19:17 61.29431 22.86128 27776 ft 267 kts 190°
2026-05-07 19:17 61.27580 22.86435 27899 ft 268 kts 190°
2026-05-07 19:17 61.25722 22.86742 28011 ft 268 kts 190°
2026-05-07 19:17 61.23861 22.87051 28119 ft 269 kts 190°
2026-05-07 19:18 61.22028 22.87357 28277 ft 266 kts 191°
2026-05-07 19:18 61.20194 22.87669 28429 ft 264 kts 191°
2026-05-07 19:18 61.18360 22.87963 28445 ft 265 kts 191°
2026-05-07 19:18 61.16523 22.88264 28565 ft 265 kts 191°
2026-05-07 19:19 61.14683 22.88569 28661 ft 266 kts 191°
2026-05-07 19:19 61.12840 22.88872 28759 ft 266 kts 191°
2026-05-07 19:19 61.10993 22.89176 28862 ft 266 kts 191°
2026-05-07 19:19 61.09144 22.89480 28963 ft 267 kts 191°
2026-05-07 19:20 61.07292 22.89784 29065 ft 267 kts 191°
2026-05-07 19:20 61.05461 22.90085 29155 ft 268 kts 191°
2026-05-07 19:20 61.03590 22.90387 29157 ft 272 kts 191°
2026-05-07 19:20 61.01695 22.90694 29158 ft 276 kts 191°
2026-05-07 19:21 60.99773 22.91009 29165 ft 279 kts 190°
2026-05-07 19:21 60.97830 22.91327 29163 ft 281 kts 190°
2026-05-07 19:21 60.95869 22.91647 29160 ft 284 kts 190°
2026-05-07 19:21 60.93892 22.91970 29162 ft 286 kts 190°
2026-05-07 19:22 60.91900 22.92295 29161 ft 288 kts 190°
2026-05-07 19:22 60.89897 22.92619 29164 ft 290 kts 190°
2026-05-07 19:22 60.87882 22.92946 29164 ft 291 kts 190°
2026-05-07 19:22 60.85860 22.93274 29131 ft 291 kts 189°
2026-05-07 19:23 60.83864 22.93601 29148 ft 292 kts 189°
2026-05-07 19:23 60.81833 22.93925 29149 ft 293 kts 189°
2026-05-07 19:23 60.79792 22.94252 29150 ft 295 kts 189°
2026-05-07 19:23 60.77743 22.94584 29151 ft 296 kts 189°
2026-05-07 19:24 60.75689 22.94916 29156 ft 297 kts 189°
2026-05-07 19:24 60.73633 22.95246 29156 ft 297 kts 189°
2026-05-07 19:24 60.71569 22.95578 29149 ft 298 kts 189°
2026-05-07 19:24 60.69501 22.95909 29150 ft 298 kts 189°
2026-05-07 19:25 60.67428 22.96240 29153 ft 299 kts 189°
2026-05-07 19:25 60.65354 22.96573 29153 ft 299 kts 189°
2026-05-07 19:25 60.63276 22.96906 29154 ft 300 kts 189°
2026-05-07 19:25 60.61196 22.97236 29155 ft 300 kts 189°
2026-05-07 19:26 60.59140 22.97562 29117 ft 300 kts 188°
2026-05-07 19:26 60.57060 22.97895 29144 ft 300 kts 188°
2026-05-07 19:26 60.54981 22.98227 29145 ft 300 kts 188°
2026-05-07 19:26 60.52905 22.98556 29140 ft 298 kts 188°
2026-05-07 19:27 60.50834 22.98885 29144 ft 299 kts 188°
2026-05-07 19:27 60.48761 22.99210 29138 ft 299 kts 188°
2026-05-07 19:27 60.46686 22.99538 29144 ft 299 kts 188°
2026-05-07 19:27 60.44610 22.99866 29139 ft 299 kts 188°
2026-05-07 19:28 60.42538 23.00194 29136 ft 299 kts 188°
2026-05-07 19:28 60.40460 23.00520 29140 ft 300 kts 188°
2026-05-07 19:28 60.38382 23.00847 29144 ft 300 kts 188°
2026-05-07 19:28 60.36330 23.01170 29142 ft 300 kts 188°
2026-05-07 19:29 60.34249 23.01495 29143 ft 300 kts 188°
2026-05-07 19:29 60.32167 23.01821 29137 ft 300 kts 188°
2026-05-07 19:29 60.30084 23.02153 29135 ft 300 kts 187°
2026-05-07 19:29 60.28003 23.02475 29140 ft 300 kts 188°
2026-05-07 19:30 60.23831 23.03142 29140 ft 302 kts 186°
2026-05-07 19:30 60.19640 23.04306 29138 ft 306 kts 180°
2026-05-07 19:31 60.15494 23.06130 29141 ft 307 kts 179°
2026-05-07 19:31 60.11311 23.07775 29144 ft 307 kts 180°
2026-05-07 19:32 60.07123 23.09478 29143 ft 307 kts 180°
2026-05-07 19:32 60.02934 23.11160 29141 ft 307 kts 180°
2026-05-07 19:33 59.98743 23.12841 29139 ft 307 kts 180°
2026-05-07 19:33 59.94592 23.14505 29135 ft 306 kts 180°
2026-05-07 19:34 59.90421 23.16167 29133 ft 305 kts 180°
2026-05-07 19:34 59.86261 23.17825 29126 ft 303 kts 179°
2026-05-07 19:35 59.82121 23.19468 29133 ft 303 kts 179°
2026-05-07 19:35 59.77979 23.21109 29127 ft 304 kts 179°
2026-05-07 19:36 59.73864 23.22735 29126 ft 303 kts 179°
2026-05-07 19:36 59.69722 23.24367 29126 ft 303 kts 179°
2026-05-07 19:37 59.65580 23.25996 29126 ft 303 kts 179°
2026-05-07 19:37 59.61437 23.27620 29126 ft 303 kts 179°
2026-05-07 19:38 59.57299 23.29240 29120 ft 303 kts 179°
2026-05-07 19:38 59.53157 23.30855 29120 ft 303 kts 179°
2026-05-07 19:39 59.49042 23.32457 29120 ft 303 kts 179°
2026-05-07 19:39 59.44914 23.34060 29125 ft 302 kts 179°
2026-05-07 19:40 59.40798 23.35653 29124 ft 301 kts 179°
2026-05-07 19:40 59.36688 23.37236 29115 ft 301 kts 179°
2026-05-07 19:41 59.32611 23.38818 29115 ft 300 kts 179°
2026-05-07 19:41 59.30565 23.39597 29114 ft 300 kts 179°
2026-05-07 19:41 59.28513 23.40386 29114 ft 300 kts 179°
2026-05-07 19:42 59.26464 23.41175 29113 ft 300 kts 179°
2026-05-07 19:42 59.24415 23.41961 29113 ft 300 kts 179°
2026-05-07 19:42 59.22367 23.42743 29113 ft 300 kts 179°
2026-05-07 19:42 59.20322 23.43527 29111 ft 298 kts 178°
2026-05-07 19:43 59.18289 23.44147 29112 ft 294 kts 183°
2026-05-07 19:43 59.16257 23.44569 29108 ft 294 kts 183°
2026-05-07 19:43 59.14224 23.45130 29109 ft 297 kts 180°
2026-05-07 19:43 59.12211 23.45769 29108 ft 297 kts 180°
2026-05-07 19:44 59.10170 23.46377 29110 ft 297 kts 181°
2026-05-07 19:44 59.08127 23.46954 29117 ft 297 kts 181°
2026-05-07 19:44 59.06084 23.47539 29109 ft 297 kts 181°
2026-05-07 19:44 59.04039 23.48135 29118 ft 297 kts 181°
2026-05-07 19:45 59.01993 23.48729 29116 ft 297 kts 181°
2026-05-07 19:45 58.99946 23.49318 29116 ft 297 kts 181°
2026-05-07 19:45 58.97898 23.49908 29118 ft 298 kts 181°
2026-05-07 19:45 58.95849 23.50499 29090 ft 298 kts 181°
2026-05-07 19:46 58.93832 23.51080 29109 ft 297 kts 181°
2026-05-07 19:46 58.91793 23.51663 29115 ft 297 kts 181°
2026-05-07 19:46 58.89752 23.52249 29115 ft 297 kts 181°
2026-05-07 19:46 58.87711 23.52830 28948 ft 299 kts 180°
2026-05-07 19:47 58.85616 23.53415 28535 ft 309 kts 180°
2026-05-07 19:47 58.83461 23.54030 28131 ft 317 kts 180°
2026-05-07 19:47 58.81263 23.54675 27733 ft 321 kts 179°
2026-05-07 19:47 58.79054 23.55313 27332 ft 321 kts 180°
2026-05-07 19:48 58.76869 23.55920 26820 ft 322 kts 180°
2026-05-07 19:48 58.74650 23.56542 26309 ft 323 kts 180°
2026-05-07 19:48 58.72425 23.57184 25800 ft 324 kts 179°
2026-05-07 19:48 58.70199 23.57822 25306 ft 324 kts 180°
2026-05-07 19:49 58.67961 23.58450 24828 ft 325 kts 180°
2026-05-07 19:49 58.65716 23.59082 24349 ft 326 kts 179°
2026-05-07 19:49 58.63471 23.59720 23880 ft 326 kts 179°
2026-05-07 19:49 58.61229 23.60353 23361 ft 325 kts 179°
2026-05-07 19:50 58.58996 23.60981 22809 ft 324 kts 179°
2026-05-07 19:50 58.56768 23.61609 22267 ft 322 kts 179°
2026-05-07 19:50 58.54584 23.62221 21718 ft 321 kts 179°
2026-05-07 19:50 58.52354 23.62850 21187 ft 319 kts 179°
2026-05-07 19:51 58.50202 23.63452 20678 ft 316 kts 179°
2026-05-07 19:51 58.48031 23.64060 20172 ft 314 kts 178°
2026-05-07 19:51 58.45874 23.64664 19681 ft 312 kts 178°
2026-05-07 19:51 58.43731 23.65262 19192 ft 310 kts 178°
2026-05-07 19:52 58.41600 23.65858 18699 ft 308 kts 178°
2026-05-07 19:52 58.39488 23.66443 18198 ft 305 kts 178°
2026-05-07 19:52 58.37397 23.67026 17652 ft 303 kts 178°
2026-05-07 19:52 58.35320 23.67606 17146 ft 300 kts 177°
2026-05-07 19:53 58.33338 23.68166 17111 ft 284 kts 177°
2026-05-07 19:53 58.31402 23.68714 17100 ft 272 kts 178°
2026-05-07 19:53 58.29585 23.69214 17100 ft 264 kts 178°
2026-05-07 19:53 58.27785 23.69713 17100 ft 263 kts 178°
2026-05-07 19:54 58.25963 23.70225 17101 ft 266 kts 178°
2026-05-07 19:54 58.24121 23.70722 17093 ft 268 kts 178°
2026-05-07 19:54 58.22271 23.71226 17104 ft 269 kts 177°
2026-05-07 19:54 58.20414 23.71740 17105 ft 270 kts 177°
2026-05-07 19:55 58.18551 23.72254 17108 ft 271 kts 177°
2026-05-07 19:55 58.16684 23.72766 17112 ft 271 kts 177°
2026-05-07 19:55 58.14840 23.73273 17112 ft 271 kts 177°
2026-05-07 19:55 58.12970 23.73786 17112 ft 272 kts 177°
2026-05-07 19:56 58.11100 23.74298 17110 ft 271 kts 177°
2026-05-07 19:56 58.09236 23.74808 17106 ft 271 kts 177°
2026-05-07 19:56 58.07368 23.75321 17106 ft 271 kts 177°
2026-05-07 19:56 58.05501 23.75831 17106 ft 271 kts 177°
2026-05-07 19:57 58.03636 23.76339 17107 ft 271 kts 177°
2026-05-07 19:57 58.01773 23.76847 17107 ft 270 kts 177°
2026-05-07 19:57 57.99913 23.77355 17107 ft 270 kts 177°
2026-05-07 19:57 57.98052 23.77861 17106 ft 270 kts 178°
2026-05-07 19:58 57.96224 23.78358 17103 ft 269 kts 177°
2026-05-07 19:58 57.94369 23.78861 17103 ft 269 kts 177°
2026-05-07 19:58 57.92517 23.79373 17086 ft 268 kts 177°
2026-05-07 19:58 57.90672 23.79861 17095 ft 268 kts 178°
2026-05-07 19:59 57.88835 23.80351 17013 ft 265 kts 178°
2026-05-07 19:59 57.86980 23.80831 16481 ft 272 kts 178°
2026-05-07 19:59 57.85088 23.81345 15967 ft 277 kts 176°
2026-05-07 19:59 57.83178 23.81877 15467 ft 279 kts 176°
2026-05-07 20:00 57.81253 23.82399 14973 ft 280 kts 176°
2026-05-07 20:00 57.79349 23.82910 14490 ft 280 kts 176°
2026-05-07 20:00 57.77419 23.83427 14008 ft 280 kts 175°
2026-05-07 20:00 57.75496 23.83945 13482 ft 279 kts 175°
2026-05-07 20:01 57.73580 23.84459 12948 ft 277 kts 174°
2026-05-07 20:01 57.71675 23.84970 12423 ft 276 kts 174°
2026-05-07 20:01 57.69782 23.85477 11906 ft 274 kts 174°
2026-05-07 20:01 57.67908 23.85979 11401 ft 272 kts 173°
2026-05-07 20:02 57.66036 23.86487 10892 ft 269 kts 173°
2026-05-07 20:02 57.64207 23.86955 10413 ft 262 kts 173°
2026-05-07 20:02 57.62439 23.87429 9912 ft 258 kts 172°
2026-05-07 20:02 57.60675 23.87910 9373 ft 255 kts 171°
2026-05-07 20:03 57.58931 23.88372 8837 ft 252 kts 171°
2026-05-07 20:03 57.57202 23.88828 8324 ft 250 kts 171°
2026-05-07 20:03 57.55492 23.89284 7813 ft 247 kts 170°
2026-05-07 20:03 57.53800 23.89734 7309 ft 245 kts 170°
2026-05-07 20:04 57.52123 23.90180 6815 ft 242 kts 170°
2026-05-07 20:04 57.50461 23.90618 6309 ft 240 kts 169°
2026-05-07 20:04 57.48816 23.91061 5788 ft 238 kts 169°
2026-05-07 20:04 57.47223 23.91478 5485 ft 230 kts 169°
2026-05-07 20:05 57.45663 23.91893 5215 ft 224 kts 168°
2026-05-07 20:05 57.44134 23.92301 4959 ft 220 kts 168°
2026-05-07 20:05 57.42623 23.92701 4692 ft 218 kts 168°
2026-05-07 20:05 57.41125 23.93096 4421 ft 216 kts 168°
2026-05-07 20:06 57.39642 23.93484 4164 ft 214 kts 169°
2026-05-07 20:06 57.38185 23.93861 3983 ft 208 kts 168°
2026-05-07 20:06 57.36774 23.94252 3981 ft 203 kts 168°
2026-05-07 20:06 57.35384 23.94620 3977 ft 201 kts 168°
2026-05-07 20:07 57.34020 23.94972 3969 ft 200 kts 168°
2026-05-07 20:07 57.32647 23.95330 3973 ft 199 kts 168°
2026-05-07 20:07 57.31260 23.95704 3970 ft 205 kts 168°
2026-05-07 20:07 57.29834 23.96084 3983 ft 209 kts 168°
2026-05-07 20:08 57.28404 23.96432 3955 ft 203 kts 169°
2026-05-07 20:08 57.27005 23.96775 3685 ft 203 kts 168°
2026-05-07 20:08 57.25612 23.97154 3435 ft 202 kts 168°
2026-05-07 20:08 57.24224 23.97524 3169 ft 201 kts 169°
2026-05-07 20:09 57.22841 23.97886 2915 ft 200 kts 169°
2026-05-07 20:09 57.21484 23.98240 2654 ft 199 kts 169°
2026-05-07 20:09 57.20118 23.98597 2482 ft 195 kts 169°
2026-05-07 20:10 57.17550 23.99273 2471 ft 181 kts 168°
2026-05-07 20:10 57.16307 23.99596 2470 ft 179 kts 168°
2026-05-07 20:10 57.15075 23.99916 2466 ft 178 kts 168°
2026-05-07 20:10 57.13848 24.00233 2466 ft 178 kts 168°
2026-05-07 20:11 57.12624 24.00557 2470 ft 177 kts 168°
2026-05-07 20:11 57.11394 24.00624 2468 ft 179 kts 188°
2026-05-07 20:11 57.10185 24.00200 2471 ft 179 kts 187°
2026-05-07 20:11 57.08951 23.99876 2472 ft 179 kts 184°
2026-05-07 20:12 57.07714 23.99644 2467 ft 179 kts 183°
2026-05-07 20:12 57.06475 23.99427 2467 ft 179 kts 182°
2026-05-07 20:12 57.05229 23.99234 2399 ft 180 kts 183°
2026-05-07 20:12 57.04003 23.99010 2167 ft 175 kts 183°
2026-05-07 20:13 57.02819 23.98838 1921 ft 165 kts 182°
2026-05-07 20:13 57.01711 23.98645 1698 ft 157 kts 182°
2026-05-07 20:13 57.00633 23.98481 1481 ft 154 kts 182°
2026-05-07 20:13 56.99573 23.98294 1271 ft 153 kts 183°
2026-05-07 20:14 56.98531 23.98130 1065 ft 152 kts 182°
2026-05-07 20:14 56.97495 23.97957 858 ft 146 kts 185°
2026-05-07 20:14 56.96509 23.97790 664 ft 140 kts 184°
2026-05-07 20:14 56.95545 23.97645 481 ft 138 kts 184°
2026-05-07 20:15 56.94600 23.97476 304 ft 134 kts 186°
2026-05-07 20:15 56.93696 23.97324 121 ft 126 kts 185°
2026-05-07 20:15 56.92881 23.97206 39 ft 99 kts 187°
2026-05-07 20:15 56.92335 23.97102 32 ft 61 kts 181°
2026-05-07 20:16 56.91952 23.97052 31 ft 50 kts 178°
2026-05-07 20:16 56.91751 23.97191 32 ft 16 kts 149°
2026-05-07 20:16 56.91713 23.97320 32 ft 0 kts 92°
2026-05-07 20:17 56.91712 23.97334 32 ft 4 kts 94°
2026-05-07 20:17 56.91705 23.97461 32 ft 16 kts 95°
2026-05-07 20:17 56.91679 23.97665 32 ft 10 kts 151°
2026-05-07 20:17 56.91587 23.97666 32 ft 15 kts 182°
2026-05-07 20:18 56.91478 23.97646 32 ft 4 kts 180°
2026-05-07 20:18 56.91438 23.97570 32 ft 13 kts 272°
2026-05-07 20:18 56.91438 23.97545 32 ft 0 kts 278°